{"data":{"norad_id":64267,"intl_designator":"2025-120M","name":"STARLINK-34321","alt_names":[],"object_type":"PAYLOAD","status":"ACTIVE","operator":null,"country":"US","launch_date":"2025-06-04","launch_site_code":"AFWTR","launch_vehicle":null,"mission":null,"orbit_class":"UNKNOWN","rcs_meters":null,"size_class":null,"mass_kg":null,"dimensions":null,"purposes":["comms"],"wikipedia_slug":null,"has_3d_model":false,"image_url":null,"decayed_at":null,"tle_current":{"epoch":"2026-05-25T04:44:33.010656Z","epoch_age_seconds":55290,"freshness":"FRESH","line1":"1 64267U 25120M   26145.19760429 -.00023332  00000+0 -68040-3 0  9996","line2":"2 64267  53.1604 118.9233 0000861  84.1043 276.0058 15.34452791 55669","mean_motion":15.34452791,"eccentricity":8.61e-5,"inclination_deg":53.1604,"raan_deg":118.9233,"arg_perigee_deg":84.1043,"mean_anomaly_deg":276.0058,"bstar":-0.0006804,"rev_number":5566,"period_min":93.844529362259,"perigee_km":461.95735589293,"apogee_km":463.13532156386,"semimajor_km":6840.6833387284,"source":"CELESTRAK","updated_at":"2026-05-25T13:38:20.359386Z"}}}